| time (UTC) | temp C | wind direction | speed KPH | gust KPH | rain 1hr cm | rain 24hr cm | rain mn cm | humidity % | barometer mb |
| 20260506002004 | 10 | 347 | 6.4 | 11.3 | 0.00 | 0.00 | 0.00 | 88 | 1009.6 |
| 20260506001504 | 10 | 342 | 4.8 | 11.3 | 0.00 | 0.00 | 0.00 | 88 | 1009.6 |
| 20260506001004 | 10 | 26 | 3.2 | 11.3 | 0.00 | 0.00 | 0.00 | 88 | 1009.6 |
| 20260506000504 | 10 | 19 | 4.8 | 11.3 | 0.00 | 0.00 | 0.00 | 88 | 1009.6 |
| 20260505235504 | 10 | 352 | 4.8 | 14.5 | 0.00 | 0.00 | 0.00 | 88 | 1009.6 |
| 20260505235004 | 10 | 30 | 4.8 | 12.9 | 0.00 | 0.00 | 0.00 | 88 | 1009.6 |
| 20260505234505 | 10 | 20 | 6.4 | 14.5 | 0.00 | 0.00 | 0.00 | 88 | 1009.6 |
| 20260505234004 | 10 | 5 | 6.4 | 14.5 | 0.00 | 0.00 | 0.00 | 88 | 1009.7 |
| 20260505233003 | 10 | 39 | 8.0 | 14.5 | 0.00 | 0.00 | 0.00 | 88 | 1009.8 |
| 20260505232504 | 10 | 4 | 8.0 | 19.3 | 0.00 | 0.00 | 0.00 | 88 | 1009.8 |
| 20260505231004 | 10 | 22 | 6.4 | 19.3 | 0.00 | 0.00 | 0.00 | 88 | 1009.8 |
| 20260505230504 | 11 | 17 | 4.8 | 8.0 | 0.00 | 0.00 | 0.00 | 88 | 1009.8 |
| 20260505230004 | 11 | 15 | 4.8 | 12.9 | 0.00 | 0.00 | 0.00 | 88 | 1009.8 |
| 20260505225504 | 11 | 28 | 8.0 | 12.9 | 0.00 | 0.00 | 0.00 | 87 | 1009.8 |
| 20260505225004 | 11 | 39 | 4.8 | 11.3 | 0.00 | 0.00 | 0.00 | 87 | 1009.8 |
| 20260505224504 | 11 | 31 | 6.4 | 11.3 | 0.00 | 0.00 | 0.00 | 87 | 1010.0 |
| 20260505224004 | 11 | 34 | 8.0 | 16.1 | 0.00 | 0.00 | 0.00 | 86 | 1010.0 |
| 20260505223504 | 11 | 32 | 4.8 | 14.5 | 0.00 | 0.00 | 0.00 | 86 | 1010.0 |
| 20260505223005 | 11 | 52 | 8.0 | 12.9 | 0.00 | 0.00 | 0.00 | 86 | 1010.0 |
| 20260505222004 | 11 | 18 | 4.8 | 12.9 | 0.00 | 0.00 | 0.00 | 85 | 1010.0 |
| 20260505221004 | 11 | 28 | 4.8 | 14.5 | 0.00 | 0.00 | 0.00 | 85 | 1009.9 |
| 20260505220004 | 11 | 24 | 8.0 | 22.5 | 0.00 | 0.00 | 0.00 | 85 | 1010.0 |
| 20260505215504 | 11 | 8 | 9.7 | 22.5 | 0.00 | 0.00 | 0.00 | 85 | 1009.9 |
| 20260505215005 | 11 | 27 | 6.4 | 14.5 | 0.00 | 0.00 | 0.00 | 85 | 1010.0 |
| 20260505214504 | 11 | 31 | 8.0 | 19.3 | 0.00 | 0.00 | 0.00 | 85 | 1010.0 |
| 20260505214004 | 11 | 26 | 9.7 | 16.1 | 0.00 | 0.00 | 0.00 | 85 | 1010.0 |
| 20260505213004 | 11 | 18 | 8.0 | 19.3 | 0.00 | 0.00 | 0.00 | 84 | 1010.0 |
| 20260505212503 | 11 | 20 | 8.0 | 20.9 | 0.00 | 0.00 | 0.00 | 85 | 1010.0 |
| 20260505211503 | 12 | 35 | 8.0 | 16.1 | 0.00 | 0.00 | 0.00 | 84 | 1010.0 |
| 20260505210504 | 12 | 36 | 4.8 | 19.3 | 0.00 | 0.00 | 0.00 | 83 | 1010.0 |
| 20260505210004 | 12 | 28 | 11.3 | 19.3 | 0.00 | 0.00 | 0.00 | 83 | 1010.1 |
| 20260505205504 | 12 | 19 | 8.0 | 16.1 | 0.00 | 0.00 | 0.00 | 83 | 1010.1 |
| 20260505205005 | 12 | 27 | 6.4 | 19.3 | 0.00 | 0.00 | 0.00 | 83 | 1010.1 |
| 20260505204505 | 12 | 25 | 8.0 | 19.3 | 0.00 | 0.00 | 0.00 | 83 | 1010.0 |
| 20260505204003 | 12 | 28 | 8.0 | 16.1 | 0.00 | 0.00 | 0.00 | 83 | 1010.0 |
| 20260505203005 | 12 | 32 | 9.7 | 20.9 | 0.00 | 0.00 | 0.00 | 83 | 1010.0 |
| 20260505202504 | 12 | 17 | 8.0 | 19.3 | 0.00 | 0.00 | 0.00 | 83 | 1009.9 |
| 20260505202005 | 12 | 22 | 8.0 | 19.3 | 0.00 | 0.00 | 0.00 | 83 | 1010.0 |
| 20260505201504 | 12 | 30 | 9.7 | 19.3 | 0.00 | 0.00 | 0.00 | 83 | 1009.8 |
| 20260505201003 | 12 | 30 | 8.0 | 14.5 | 0.00 | 0.00 | 0.00 | 83 | 1009.7 |
| 20260505200504 | 12 | 29 | 9.7 | 16.1 | 0.00 | 0.00 | 0.00 | 83 | 1009.7 |
| 20260505195504 | 12 | 25 | 6.4 | 16.1 | 0.00 | 0.00 | 0.00 | 83 | 1009.7 |
| 20260505195004 | 12 | 27 | 9.7 | 14.5 | 0.00 | 0.00 | 0.00 | 83 | 1009.7 |
| 20260505194504 | 12 | 23 | 8.0 | 20.9 | 0.00 | 0.00 | 0.00 | 83 | 1009.6 |
| 20260505194004 | 12 | 21 | 8.0 | 14.5 | 0.00 | 0.00 | 0.00 | 83 | 1009.6 |
| 20260505193504 | 12 | 25 | 4.8 | 12.9 | 0.00 | 0.00 | 0.00 | 83 | 1009.6 |
| 20260505192504 | 13 | 13 | 4.8 | 14.5 | 0.00 | 0.00 | 0.00 | 83 | 1009.5 |
| 20260505192004 | 13 | 28 | 4.8 | 16.1 | 0.00 | 0.00 | 0.00 | 84 | 1009.4 |
| 20260505191504 | 13 | 24 | 6.4 | 19.3 | 0.00 | 0.00 | 0.00 | 83 | 1009.4 |
| 20260505191004 | 13 | 24 | 4.8 | 12.9 | 0.00 | 0.00 | 0.00 | 83 | 1009.4 |
| 20260505190504 | 13 | 358 | 6.4 | 16.1 | 0.00 | 0.00 | 0.00 | 83 | 1009.3 |
| 20260505190004 | 13 | 20 | 8.0 | 14.5 | 0.00 | 0.00 | 0.00 | 83 | 1009.2 |
| 20260505185504 | 13 | 14 | 4.8 | 12.9 | 0.00 | 0.00 | 0.00 | 83 | 1009.2 |
| 20260505185004 | 13 | 24 | 9.7 | 14.5 | 0.00 | 0.00 | 0.00 | 83 | 1009.2 |
| 20260505184504 | 13 | 17 | 4.8 | 19.3 | 0.00 | 0.00 | 0.00 | 83 | 1009.2 |
| 20260505184004 | 13 | 25 | 8.0 | 16.1 | 0.00 | 0.00 | 0.00 | 82 | 1009.2 |
| 20260505183504 | 13 | 40 | 8.0 | 14.5 | 0.00 | 0.00 | 0.00 | 82 | 1009.1 |
| 20260505183004 | 13 | 352 | 6.4 | 14.5 | 0.00 | 0.00 | 0.00 | 81 | 1009.2 |
| 20260505182004 | 14 | 21 | 8.0 | 12.9 | 0.00 | 0.00 | 0.00 | 81 | 1009.1 |
| 20260505181504 | 14 | 23 | 8.0 | 16.1 | 0.00 | 0.00 | 0.00 | 80 | 1009.1 |
| 20260505181003 | 14 | 18 | 8.0 | 16.1 | 0.00 | 0.00 | 0.00 | 80 | 1009.2 |
| 20260505180504 | 14 | 14 | 9.7 | 19.3 | 0.00 | 0.00 | 0.00 | 81 | 1009.2 |
| 20260505180004 | 15 | 20 | 4.8 | 12.9 | 0.00 | 0.00 | 0.00 | 81 | 1009.2 |
| 20260505175504 | 14 | 32 | 3.2 | 8.0 | 0.00 | 0.00 | 0.00 | 84 | 1009.2 |
| 20260505174504 | 14 | 67 | 1.6 | 4.8 | 0.00 | 0.00 | 0.00 | 84 | 1009.2 |
| 20260505174004 | 15 | 68 | 4.8 | 8.0 | 0.00 | 0.00 | 0.00 | 83 | 1009.2 |
| 20260505173004 | 15 | 71 | 3.2 | 14.5 | 0.00 | 0.00 | 0.00 | 82 | 1009.1 |
| 20260505172504 | 15 | 52 | 4.8 | 11.3 | 0.00 | 0.00 | 0.00 | 80 | 1009.1 |
| 20260505172004 | 15 | 31 | 4.8 | 16.1 | 0.00 | 0.00 | 0.00 | 80 | 1009.2 |
| 20260505171504 | 15 | 28 | 6.4 | 11.3 | 0.00 | 0.00 | 0.00 | 81 | 1009.2 |
| 20260505171004 | 15 | 35 | 6.4 | 12.9 | 0.00 | 0.00 | 0.00 | 82 | 1009.2 |
| 20260505170504 | 15 | 47 | 3.2 | 11.3 | 0.00 | 0.00 | 0.00 | 83 | 1009.2 |
| 20260505170004 | 15 | 61 | 1.6 | 12.9 | 0.00 | 0.00 | 0.00 | 83 | 1009.2 |
| 20260505165504 | 15 | 62 | 4.8 | 12.9 | 0.00 | 0.00 | 0.00 | 84 | 1009.2 |
| 20260505165003 | 15 | 38 | 4.8 | 11.3 | 0.00 | 0.00 | 0.00 | 83 | 1009.3 |
| 20260505164504 | 14 | 59 | 6.4 | 16.1 | 0.00 | 0.00 | 0.00 | 84 | 1009.3 |
| 20260505164003 | 14 | 41 | 6.4 | 14.5 | 0.00 | 0.00 | 0.00 | 84 | 1009.4 |
| 20260505163504 | 14 | 63 | 6.4 | 16.1 | 0.00 | 0.00 | 0.00 | 84 | 1009.3 |
| 20260505163004 | 14 | 36 | 6.4 | 11.3 | 0.00 | 0.00 | 0.00 | 85 | 1009.3 |
| 20260505162504 | 14 | 45 | 8.0 | 12.9 | 0.00 | 0.00 | 0.00 | 84 | 1009.4 |
| 20260505162004 | 14 | 63 | 4.8 | 12.9 | 0.00 | 0.00 | 0.00 | 84 | 1009.4 |
| 20260505161504 | 15 | 22 | 9.7 | 16.1 | 0.00 | 0.00 | 0.00 | 83 | 1009.4 |
| 20260505161003 | 15 | 44 | 4.8 | 14.5 | 0.00 | 0.00 | 0.00 | 84 | 1009.5 |
| 20260505160504 | 15 | 67 | 6.4 | 11.3 | 0.00 | 0.00 | 0.00 | 84 | 1009.5 |
| 20260505115004 | 12 | 22 | 4.8 | 12.9 | 0.00 | 0.00 | 0.00 | 91 | 1010.8 |
| 20260505113504 | 12 | 55 | 4.8 | 14.5 | 0.00 | 0.00 | 0.00 | 92 | 1010.9 |
| 20260505113004 | 12 | 25 | 8.0 | 11.3 | 0.00 | 0.03 | 0.00 | 92 | 1010.8 |
| 20260505112504 | 12 | 59 | 4.8 | 12.9 | 0.00 | 0.03 | 0.00 | 92 | 1010.9 |
| 20260505112005 | 12 | 32 | 8.0 | 14.5 | 0.00 | 0.03 | 0.00 | 92 | 1010.9 |
| 20260505111503 | 12 | 30 | 8.0 | 14.5 | 0.00 | 0.03 | 0.00 | 92 | 1011.0 |
| 20260505110505 | 12 | 31 | 4.8 | 12.9 | 0.00 | 0.03 | 0.00 | 92 | 1011.0 |
| 20260505102005 | 12 | 31 | 11.3 | 16.1 | 0.00 | 0.03 | 0.00 | 93 | 1011.0 |
| 20260505101505 | 12 | 16 | 9.7 | 19.3 | 0.00 | 0.03 | 0.00 | 93 | 1011.1 |
| 20260505101004 | 12 | 14 | 8.0 | 14.5 | 0.00 | 0.03 | 0.00 | 93 | 1011.1 |
| 20260505100504 | 12 | 23 | 8.0 | 14.5 | 0.00 | 0.03 | 0.00 | 94 | 1011.1 |
| 20260505100003 | 11 | 30 | 8.0 | 16.1 | 0.00 | 0.03 | 0.00 | 94 | 1011.0 |
| 20260505095504 | 11 | 33 | 9.7 | 20.9 | 0.00 | 0.03 | 0.00 | 94 | 1011.0 |
| 20260505095003 | 11 | 24 | 8.0 | 19.3 | 0.00 | 0.03 | 0.00 | 94 | 1011.0 |
| 20260505094504 | 11 | 29 | 9.7 | 19.3 | 0.00 | 0.03 | 0.00 | 94 | 1011.0 |
| 20260505094004 | 11 | 16 | 4.8 | 16.1 | 0.00 | 0.03 | 0.00 | 94 | 1011.0 |
| 20260505093004 | 11 | 31 | 8.0 | 16.1 | 0.00 | 0.03 | 0.00 | 94 | 1011.0 |
| 20260505092504 | 11 | 23 | 9.7 | 14.5 | 0.00 | 0.03 | 0.00 | 94 | 1011.0 |
| 20260505092004 | 11 | 353 | 8.0 | 14.5 | 0.00 | 0.03 | 0.00 | 94 | 1011.1 |
| 20260505091505 | 11 | 26 | 4.8 | 11.3 | 0.00 | 0.03 | 0.00 | 94 | 1011.1 |
| 20260505091004 | 11 | 28 | 4.8 | 19.3 | 0.00 | 0.03 | 0.00 | 94 | 1011.2 |
| 20260505090503 | 11 | 13 | 8.0 | 19.3 | 0.00 | 0.03 | 0.00 | 94 | 1011.2 |
| 20260505090004 | 11 | 30 | 9.7 | 16.1 | 0.00 | 0.03 | 0.00 | 94 | 1011.2 |
| 20260505085504 | 11 | 26 | 9.7 | 19.3 | 0.00 | 0.03 | 0.00 | 94 | 1011.3 |
| 20260505085005 | 11 | 30 | 9.7 | 19.3 | 0.00 | 0.03 | 0.00 | 94 | 1011.2 |
| 20260505083507 | 11 | 27 | 8.0 | 12.9 | 0.00 | 0.03 | 0.00 | 93 | 1011.2 |
| 20260505083005 | 11 | 20 | 6.4 | 16.1 | 0.00 | 0.03 | 0.00 | 94 | 1011.2 |
| 20260505082505 | 11 | 18 | 4.8 | 12.9 | 0.00 | 0.03 | 0.00 | 94 | 1011.2 |
| 20260505082004 | 11 | 10 | 6.4 | 11.3 | 0.00 | 0.03 | 0.00 | 94 | 1011.2 |
| 20260505081505 | 11 | 28 | 8.0 | 11.3 | 0.00 | 0.03 | 0.00 | 94 | 1011.3 |
| 20260505081003 | 11 | 24 | 8.0 | 14.5 | 0.00 | 0.03 | 0.00 | 94 | 1011.3 |
| 20260505080506 | 11 | 30 | 4.8 | 11.3 | 0.00 | 0.03 | 0.00 | 93 | 1011.3 |
| 20260505074506 | 11 | 2 | 6.4 | 12.9 | 0.00 | 0.03 | 0.00 | 93 | 1011.4 |
| 20260505074004 | 11 | 6 | 4.8 | 9.7 | 0.00 | 0.03 | 0.00 | 93 | 1011.3 |
| 20260505073506 | 11 | 354 | 4.8 | 12.9 | 0.00 | 0.03 | 0.00 | 93 | 1011.3 |
| 20260505073004 | 11 | 25 | 8.0 | 12.9 | 0.00 | 0.03 | 0.00 | 93 | 1011.4 |
| 20260505072504 | 11 | 26 | 4.8 | 12.9 | 0.00 | 0.03 | 0.00 | 94 | 1011.2 |
| 20260505072004 | 11 | 22 | 8.0 | 16.1 | 0.00 | 0.03 | 0.00 | 94 | 1011.3 |
| 20260505071504 | 11 | 26 | 8.0 | 16.1 | 0.00 | 0.03 | 0.00 | 94 | 1011.3 |
| 20260505071004 | 11 | 19 | 8.0 | 14.5 | 0.00 | 0.03 | 0.00 | 94 | 1011.3 |
| 20260505070506 | 11 | 26 | 9.7 | 19.3 | 0.00 | 0.03 | 0.00 | 94 | 1011.4 |
| 20260505070004 | 11 | 27 | 11.3 | 19.3 | 0.00 | 0.03 | 0.00 | 94 | 1011.3 |
| 20260505065503 | 11 | 24 | 6.4 | 12.9 | 0.00 | 0.03 | 0.00 | 94 | 1011.3 |
| 20260505064506 | 11 | 349 | 8.0 | 14.5 | 0.00 | 0.03 | 0.00 | 94 | 1011.3 |
| 20260505064005 | 11 | 0 | 8.0 | 16.1 | 0.00 | 0.03 | 0.00 | 94 | 1011.3 |
| 20260505063504 | 11 | 10 | 4.8 | 11.3 | 0.00 | 0.03 | 0.00 | 94 | 1011.3 |
| 20260505063005 | 11 | 45 | 6.4 | 16.1 | 0.00 | 0.03 | 0.00 | 94 | 1011.5 |
| 20260505062504 | 11 | 31 | 8.0 | 16.1 | 0.00 | 0.03 | 0.00 | 94 | 1011.5 |
| 20260505062003 | 11 | 29 | 6.4 | 12.9 | 0.00 | 0.03 | 0.00 | 94 | 1011.5 |
| 20260505060504 | 11 | 331 | 4.8 | 11.3 | 0.00 | 0.03 | 0.00 | 94 | 1011.4 |
| 20260505055504 | 11 | 0 | 8.0 | 14.5 | 0.00 | 0.03 | 0.00 | 94 | 1011.4 |
| 20260505055004 | 11 | 355 | 4.8 | 9.7 | 0.00 | 0.03 | 0.00 | 94 | 1011.5 |
| 20260505054005 | 11 | 19 | 6.4 | 11.3 | 0.00 | 0.03 | 0.00 | 94 | 1011.5 |
| 20260505053503 | 11 | 28 | 4.8 | 16.1 | 0.00 | 0.03 | 0.00 | 94 | 1011.5 |
| 20260505053004 | 11 | 27 | 6.4 | 14.5 | 0.00 | 0.03 | 0.00 | 94 | 1011.4 |
| 20260505052003 | 11 | 340 | 8.0 | 12.9 | 0.00 | 0.03 | 0.00 | 94 | 1011.3 |
| 20260505051504 | 11 | 2 | 4.8 | 12.9 | 0.00 | 0.03 | 0.00 | 94 | 1011.4 |
| 20260505051005 | 11 | 354 | 6.4 | 11.3 | 0.00 | 0.03 | 0.00 | 94 | 1011.3 |
| 20260505050504 | 11 | 24 | 4.8 | 12.9 | 0.00 | 0.03 | 0.00 | 94 | 1011.4 |
| 20260505041504 | 12 | 25 | 3.2 | 11.3 | 0.00 | 0.03 | 0.00 | 94 | 1011.3 |
| 20260505041005 | 12 | 328 | 4.8 | 9.7 | 0.00 | 0.03 | 0.00 | 94 | 1011.2 |
| 20260505040506 | 12 | 28 | 3.2 | 11.3 | 0.00 | 0.03 | 0.00 | 94 | 1011.3 |
| 20260505040005 | 12 | 4 | 9.7 | 14.5 | 0.00 | 0.03 | 0.00 | 93 | 1011.4 |
| 20260505035504 | 12 | 5 | 6.4 | 14.5 | 0.00 | 0.03 | 0.00 | 93 | 1011.4 |
| 20260505035004 | 12 | 345 | 8.0 | 14.5 | 0.00 | 0.03 | 0.00 | 94 | 1011.4 |
| 20260505034503 | 12 | 35 | 6.4 | 14.5 | 0.00 | 0.03 | 0.00 | 94 | 1011.4 |
| 20260505034003 | 12 | 29 | 6.4 | 14.5 | 0.00 | 0.03 | 0.00 | 94 | 1011.5 |
| 20260505033504 | 12 | 24 | 6.4 | 12.9 | 0.00 | 0.03 | 0.00 | 93 | 1011.5 |
| 20260505033003 | 12 | 5 | 8.0 | 12.9 | 0.00 | 0.03 | 0.00 | 93 | 1011.5 |
| 20260505032505 | 12 | 0 | 6.4 | 12.9 | 0.00 | 0.03 | 0.00 | 93 | 1011.6 |
| 20260505032005 | 12 | 356 | 6.4 | 11.3 | 0.00 | 0.03 | 0.00 | 93 | 1011.5 |
| 20260505031503 | 12 | 35 | 4.8 | 11.3 | 0.00 | 0.03 | 0.00 | 93 | 1011.6 |
| 20260505031004 | 12 | 336 | 6.4 | 12.9 | 0.00 | 0.03 | 0.00 | 93 | 1011.6 |
| 20260505030504 | 12 | 28 | 4.8 | 14.5 | 0.00 | 0.03 | 0.00 | 93 | 1011.5 |
| 20260505030004 | 12 | 33 | 8.0 | 12.9 | 0.00 | 0.03 | 0.00 | 93 | 1011.5 |
| 20260505025505 | 12 | 32 | 6.4 | 12.9 | 0.00 | 0.03 | 0.00 | 93 | 1011.6 |
| 20260505025005 | 12 | 15 | 6.4 | 12.9 | 0.00 | 0.03 | 0.00 | 93 | 1011.5 |
| 20260505024505 | 12 | 25 | 9.7 | 16.1 | 0.00 | 0.03 | 0.00 | 93 | 1011.6 |
| 20260505024004 | 12 | 28 | 9.7 | 19.3 | 0.00 | 0.03 | 0.00 | 93 | 1011.5 |
| 20260505023505 | 12 | 22 | 8.0 | 14.5 | 0.00 | 0.03 | 0.00 | 93 | 1011.5 |
| 20260505023004 | 12 | 40 | 8.0 | 14.5 | 0.00 | 0.03 | 0.00 | 93 | 1011.6 |
| 20260505022505 | 12 | 41 | 8.0 | 14.5 | 0.00 | 0.03 | 0.00 | 93 | 1011.6 |
| 20260505021504 | 12 | 24 | 4.8 | 11.3 | 0.00 | 0.03 | 0.00 | 93 | 1011.6 |
| 20260505021003 | 12 | 17 | 8.0 | 12.9 | 0.00 | 0.03 | 0.00 | 93 | 1011.6 |
| 20260505020505 | 12 | 11 | 6.4 | 19.3 | 0.00 | 0.03 | 0.00 | 93 | 1011.6 |
| 20260505020004 | 12 | 26 | 8.0 | 19.3 | 0.00 | 0.03 | 0.00 | 93 | 1011.5 |
| 20260505015505 | 12 | 354 | 4.8 | 16.1 | 0.00 | 0.03 | 0.00 | 93 | 1011.5 |
| 20260505015004 | 13 | 25 | 8.0 | 14.5 | 0.00 | 0.03 | 0.00 | 93 | 1011.5 |
| 20260505014504 | 13 | 28 | 4.8 | 9.7 | 0.00 | 0.03 | 0.00 | 93 | 1011.6 |
| 20260505014004 | 13 | 29 | 4.8 | 9.7 | 0.00 | 0.03 | 0.00 | 93 | 1011.6 |
| 20260505013504 | 13 | 31 | 1.6 | 8.0 | 0.00 | 0.03 | 0.00 | 93 | 1011.6 |
| 20260505013004 | 13 | 34 | 3.2 | 11.3 | 0.00 | 0.03 | 0.00 | 93 | 1011.6 |
| 20260505012503 | 13 | 34 | 6.4 | 19.3 | 0.00 | 0.03 | 0.00 | 93 | 1011.6 |
| 20260505012005 | 13 | 33 | 8.0 | 16.1 | 0.00 | 0.03 | 0.00 | 93 | 1011.6 |
| 20260505011506 | 13 | 27 | 4.8 | 11.3 | 0.00 | 0.03 | 0.00 | 93 | 1011.6 |
| 20260505011004 | 13 | 14 | 8.0 | 12.9 | 0.00 | 0.03 | 0.00 | 93 | 1011.7 |
| 20260505010505 | 13 | 53 | 8.0 | 16.1 | 0.00 | 0.03 | 0.00 | 93 | 1011.7 |
| 20260505010004 | 13 | 13 | 8.0 | 12.9 | 0.00 | 0.03 | 0.00 | 94 | 1011.7 |
| 20260505005005 | 13 | 7 | 4.8 | 11.3 | 0.00 | 0.03 | 0.00 | 93 | 1011.8 |
| 20260505004006 | 13 | 14 | 4.8 | 9.7 | 0.00 | 0.03 | 0.00 | 93 | 1011.9 |
| 20260505003504 | 13 | 351 | 4.8 | 9.7 | 0.00 | 0.03 | 0.00 | 93 | 1011.9 |